Regional Weather Roundup
Issued by NWS Memphis, TN

Home | Current Version | Previous Version | Text Only | Print | Product List | Glossary On
Versions: 1 2 3 4 5 6 7 8 9 10 11 12 13 14 15 16 17 18 19 20 21 22 23 24 25 26 27 28 29 30 31 32 33 34 35 36 37 38 39 40 41 42 43 44 45 46 47 48 49 50
000
ASUS44 KMEG 251100
RWRMEG
MEMPHIS CWA HOURLY WEATHER ROUNDUP
NATIONAL WEATHER SERVICE MEMPHIS TN
600 AM CDT THU MAY 25 2017

...WEST TENNESSEE...

CITY           SKY/WX    TMP DP  RH WIND       PRES   REMARKS
MEMPHIS INTL   PTCLDY    53  51  93 SW3       29.73R
NWS MEMPHIS      N/A     51 N/A N/A MISG        N/A
JACKSON        CLEAR     52  51  97 SW6       29.70R
DYERSBURG        N/A    N/A N/A N/A MISG        N/A


...EASTERN ARKANSAS...

CITY           SKY/WX    TMP DP  RH WIND       PRES   REMARKS
JONESBORO      CLEAR     53  50  89 W10       29.73R
WEST MEMPHIS   CLEAR     52  52 100 VRB5      29.73R
BATESVILLE     CLEAR     48  46  93 W3        29.75R
WALNUT RIDGE   CLEAR     52  46  82 W5        29.73R
BLYTHEVILLE    CLEAR     53  51  93 W8        29.71R
SEARCY         CLEAR     48  48 100 CALM      29.77R
STUTTGART      CLEAR     54  41  62 SW9       29.77R
PINE BLUFF     CLEAR     51  49  92 CALM      29.77R
MONTICELLO     CLEAR     51  49  92 CALM      29.78R


...NORTH MISSISSIPPI...

CITY           SKY/WX    TMP DP  RH WIND       PRES   REMARKS
TUPELO         CLEAR     51  49  92 SW3       29.74R
TUNICA         CLEAR     50  50 100 CALM      29.77R
CLARKSDALE       N/A     54  54 100 MISG      29.76R
GREENWOOD      CLEAR     51  51 100 CALM      29.77R
STARKVILLE     CLEAR     50  48  93 CALM      29.79R


...SOUTHEAST MISSOURI...

CITY           SKY/WX    TMP DP  RH WIND       PRES   REMARKS
KENNETT        CLEAR     54  52  94 W6        29.69R
MALDEN         CLEAR     54  48  82 W8        29.70R
WEST PLAINS    PTCLDY    46  45  96 W5        29.73S
POPLAR BLUFF   CLEAR     51  49  92 NW5       29.70R
CAPE GIRARDEAU CLEAR     51  48  89 W8        29.67R


...NORTHWEST ALABAMA...

CITY           SKY/WX    TMP DP  RH WIND       PRES   REMARKS
MUSCLE SHOALS  CLEAR     52  49  89 W6        29.72R


...MIDDLE TENNESSEE...

CITY           SKY/WX    TMP DP  RH WIND       PRES   REMARKS
NASHVILLE      MOCLDY    55  51  86 SW6       29.64R
CLARKSVILLE    CLOUDY    55  51  86 W10       29.63R


...WESTERN KENTUCKY...

CITY           SKY/WX    TMP DP  RH WIND       PRES   REMARKS
PADUCAH        CLEAR     53  49  86 W6        29.64R
FORT CAMPBELL  CLOUDY    55  54  96 W12       29.63R


...CENTRAL ARKANSAS...

CITY           SKY/WX    TMP DP  RH WIND       PRES   REMARKS
LITTLE ROCK    PTCLDY    50  50 100 W3        29.76R


SKY/WX REPORTED AS FAIR MEANS FEW OR NO CLOUDS BELOW
12 THOUSAND FEET.





USA.gov is the U.S. government's official web portal to all federal, state and local government web resources and services.